This demonstration page uses our WeatherBlox Daily Observations layout. Learn more.

Left ArrowRight Arrow

44.8408, -93.29828

Hourly Observations for September 29, 2019

Temp ( °F °C ) Dew Point ( °F °C ) Humidity (%) Winds ( mph kmh ) Pressure ( in mb ) Visibility ( mi km ) Precip ( " mm )
12:53 am 00:53 Cloudy with Light Rain 55 12.8 43 6.1 64 64 E 13 20 30.21 1023 10 16 0.00 0.00
1:53 am 01:53 Cloudy with Light Rain 53 11.7 45 7.2 74 74 E 12 19 30.19 1023 10 16 0.03 0.76
2:53 am 02:53 Cloudy with Light Rain 52 11.1 47 8.3 83 83 E 10 17 30.19 1022 10 16 0.00 0.00
3:53 am 03:53 Cloudy with Rain 53 11.7 46 7.8 77 77 ESE 17 28 30.19 1023 10 16 0.01 0.25
4:53 am 04:53 Cloudy with Light Rain 50 10 46 7.8 86 86 E 15 24 30.20 1023 4 6 0.10 2.54
5:23 am 05:23 Cloudy with Light Rain 50 10 46 7.8 86 86 ENE 12 19 30.19 1022 8 13 0.02 0.51
5:53 am 05:53 Cloudy with Light Rain 50 10 47 8.3 89 89 E 14 22 30.18 1022 4 6 0.04 1.02
5:57 am 05:57 Cloudy with Rain 50 10 47 8.3 89 89 E 12 19 30.18 1022 5 8 0.00 0.00
6:49 am 06:49 Cloudy with Light Rain 50 10 48 9 94 94 E 15 24 30.18 1022 4 6 0.04 1.02
6:53 am 06:53 Cloudy with Light Rain 50 10 48 8.9 93 93 E 13 20 30.18 1022 4 6 0.04 1.02
6:58 am 06:58 Cloudy with Light Rain 50 10 48 8.9 93 93 E 15 24 30.18 1022 3 4 0.01 0.25
7:07 am 07:07 Cloudy with Light Rain 50 10 48 8.9 93 93 E 13 20 30.18 1022 4 6 0.02 0.51
7:16 am 07:16 Cloudy with Light Rain 50 10 48 8.9 93 93 E 14 22 30.18 1022 4 6 0.03 0.76
7:32 am 07:32 Cloudy with Light Rain 50 10 48 8.9 93 93 E 13 20 30.17 1022 3 4 0.04 1.02
7:45 am 07:45 Cloudy with Light Rain 50 10 48 8.9 93 93 E 13 20 30.18 1022 4 6 0.05 1.27
7:53 am 07:53 Cloudy with Drizzle 50 10 48 8.9 93 93 E 13 20 30.17 1022 4 6 0.05 1.27
8:21 am 08:21 Cloudy 51 10.6 48 8.9 89 89 E 14 22 30.17 1022 7 11 0.00 0.00
8:31 am 08:31 Cloudy 51 10.6 48 8.9 89 89 E 13 20 30.17 1022 10 16 0.00 0.00
8:53 am 08:53 Cloudy with Mist and Fog 51 10.6 49 9.4 92 92 E 16 26 30.16 1022 4 6 0.00 0.00
9:40 am 09:40 Cloudy with Drizzle 52 11.1 49 9.4 89 89 E 14 22 30.16 1021 2 3 0.00 0.00
9:53 am 09:53 Cloudy with Drizzle 52 11.1 50 10 93 93 E 14 22 30.16 1021 3 4 0.00 0.00
10:03 am 10:03 Cloudy with Drizzle 52 11.1 50 10 93 93 E 13 20 30.16 1021 3 5 0.00 0.00
10:41 am 10:41 Cloudy with Drizzle 53 11.7 51 10.6 93 93 ESE 13 20 30.14 1021 2 3 0.01 0.25
10:53 am 10:53 Cloudy with Drizzle 53 11.7 51 10.6 93 93 ESE 14 22 30.15 1021 3 4 0.01 0.25
11:05 am 11:05 Cloudy with Drizzle 53 11.7 51 10.6 93 93 ESE 15 24 30.14 1021 3 5 0.00 0.00
11:13 am 11:13 Cloudy with Drizzle 53 11.7 51 10.6 93 93 ESE 15 24 30.14 1021 3 4 0.00 0.00
11:45 am 11:45 Cloudy with Mist and Fog 54 12.2 52 11.1 93 93 ESE 15 24 30.12 1020 3 5 0.00 0.00
11:53 am 11:53 Cloudy with Mist and Fog 54 12.2 52 11.1 93 93 ESE 14 22 30.12 1020 4 6 0.00 0.00
12:53 pm 12:53 Cloudy 55 12.8 53 11.7 93 93 ESE 16 26 30.10 1019 7 11 0.00 0.00
1:53 pm 13:53 Cloudy 56 13.3 53 11.7 90 90 ESE 15 24 30.09 1019 10 16 0.00 0.00
2:53 pm 14:53 Cloudy with Drizzle 57 13.9 54 12.2 90 90 SE 18 30 30.07 1018 3 5 0.00 0.00
2:59 pm 14:59 Cloudy with Drizzle 57 13.9 54 12.2 90 90 ESE 15 24 30.07 1018 2 3 0.00 0.00
3:36 pm 15:36 Cloudy with Drizzle 57 13.9 54 12.2 90 90 ESE 18 30 30.05 1018 3 5 0.00 0.00
3:53 pm 15:53 Cloudy with Drizzle 57 13.9 54 12.2 90 90 ESE 17 28 30.06 1018 5 8 0.00 0.00
4:53 pm 16:53 Cloudy 57 13.9 55 12.8 93 93 ESE 16 26 30.04 1017 10 16 0.00 0.00
5:07 pm 17:07 Cloudy 57 13.9 54 12.2 90 90 ESE 16 26 30.03 1017 10 16 0.00 0.00
5:36 pm 17:36 Cloudy 57 13.9 54 12.2 90 90 ESE 14 22 30.03 1017 10 16 0.00 0.00
5:53 pm 17:53 Cloudy 57 13.9 54 12.2 90 90 ESE 12 19 30.03 1017 10 16 0.00 0.00
6:53 pm 18:53 Cloudy with Drizzle 57 13.9 55 12.8 93 93 ESE 20 31 30.01 1016 5 8 0.00 0.00
7:53 pm 19:53 Cloudy 57 13.9 55 12.8 93 93 ESE 13 20 30.01 1016 10 16 0.00 0.00
8:53 pm 20:53 Cloudy with Drizzle 57 13.9 55 12.8 93 93 ESE 16 26 30.00 1016 6 10 0.00 0.00
9:53 pm 21:53 Cloudy with Drizzle 58 14.4 56 13.3 93 93 ESE 16 26 29.99 1016 4 6 0.00 0.00
10:24 pm 22:24 Cloudy with Drizzle 58 14.4 56 13.3 93 93 ESE 16 26 29.98 1015 9 14 0.00 0.00
10:39 pm 22:39 Cloudy with Nearby Thunderstorms 58 14.4 56 13.3 93 93 SE 23 37 29.94 1014 10 16 0.02 0.51
10:53 pm 22:53 Cloudy with Nearby Thunderstorms 58 14.4 56 13.3 93 93 SE 16 26 29.95 1014 10 16 0.02 0.51
11:37 pm 23:37 Cloudy with Drizzle 59 15 57 13.9 93 93 ESE 12 19 29.94 1014 10 16 0.00 0.00
11:53 pm 23:53 Cloudy 59 15 57 13.9 93 93 ESE 12 19 29.94 1014 10 16 0.00 0.00

Powered by AerisWeather